Location: Central Falls
(41.8900°N, 71.3929°W)
Time: 04:33:31
(UTC+00:00)

Tiros 1 - Pass Details

Date: 07 December 2023
Orbit: 625 x 658 km, 48.4° (Epoch: 01 March)

Event Time Altitude Azimuth Distance (km) Brightness Sun altitude
Rises 15:22:14 0° 287° (WNW) 2,982 10.2 23.2°
Reaches altitude 10° 15:25:16 10° 268° (W) 2,062 9.7 23.4°
Maximum altitude 15:28:20 17° 227° (SW) 1,627 9.7 23.6°
Drops below altitude 10° 15:31:23 10° 187° (S) 2,042 11.1 23.7°
Sets 15:34:23 0° 167° (SSE) 2,940 12.0 23.9°
